Location: Unspecified
(0.0000°N, 0.0000°E)
Time: 00:00:41
(UTC+00:00)

A-11 Canister half - Visible Passes

Search period start: 25 February 2017 00:00
Search period end: 07 March 2017 00:00
Orbit: 1528 x 1682 km, 47.3° (Epoch: 23 February)

Date Brightness Start Highest point End Pass type
(mag) Time Alt. Az. Time Alt. Az. Time Alt. Az.
25 Feb 9.6 03:08:43 50° SE 03:08:43 50° SE 03:15:26 10° SE visible
25 Feb 10.1 05:07:04 17° WSW 05:10:50 22° SW 05:17:53 10° S visible
26 Feb 10.1 02:48:53 34° SE 02:48:53 34° SE 02:53:47 10° SE visible
26 Feb 10.0 04:47:14 22° WSW 04:49:12 24° SW 04:56:32 10° S visible
27 Feb 10.6 02:29:00 24° SE 02:29:00 24° SE 02:32:08 10° SE visible
27 Feb 10.0 04:27:20 25° SW 04:27:34 25° SW 04:35:11 10° S visible
28 Feb 11.0 02:09:04 15° SE 02:09:04 15° SE 02:10:28 10° SE visible
28 Feb 10.0 04:07:23 26° SW 04:07:23 26° SW 04:13:48 10° S visible
01 Mar 10.2 03:47:24 25° SSW 03:47:24 25° SSW 03:52:25 10° S visible
02 Mar 10.4 03:27:20 22° S 03:27:20 22° S 03:31:00 10° S visible
03 Mar 10.7 03:07:13 18° S 03:07:13 18° S 03:09:34 10° SSE visible
04 Mar 11.0 02:47:04 14° S 02:47:04 14° S 02:48:08 10° SSE visible
